Terminal Aerodrome Forecast
Issued by NWS

Home | Current Version | Previous Version | Text Only | Print | Product List | Glossary On
Versions: 1 2 3 4 5 6 7 8 9 10 11 12 13 14 15
000
FTUS43 KICT 160500
TAFCNU
TAF
KCNU 160522Z 1606/1706 16013KT P6SM BKN250 WS020/18040KT
     FM161500 19026G36KT P6SM SCT250
     FM162200 19019G28KT P6SM BKN250
     FM170100 17013KT P6SM BKN250=

USA.gov is the U.S. government's official web portal to all federal, state and local government web resources and services.